Weather History for North Platte, NE

Change the Weather History Date:

Friday, March 30, 2012

  Actual Average Record
Temperature  
Mean Temperature 57 °F 42 °F  
Max Temperature 80 °F 57 °F 87 °F (1943)
Min Temperature 34 °F 28 °F -6 °F (1943)
Degree Days  
Heating Degree Days 8 23  
Month to date heating degree days 465 814  
Since 1 July heating degree days 5180 5842  
Cooling Degree Days 0 0  
Month to date cooling degree days 7 0  
Year to date cooling degree days 7 0  
Growing Degree Days 6 (Base 50)    
Moisture  
Dew Point 37 °F    
Average Humidity 56    
Maximum Humidity 92    
Minimum Humidity 19    
Precipitation  
Precipitation 0.00 in 0.04 in 1.47 in (1949)
Month to date precipitation 0.82 1.00  
Year to date precipitation 2.17 1.84  
Snow  
Snow 0.00 in 0.20 in 11.70 in (1949)
Month to date snowfall T 4.3  
Since 1 July snowfall 15.6 25.2  
Snow Depth 0.00 in    
Sea Level Pressure  
Sea Level Pressure 29.77 in    
Wind  
Wind Speed 8 mph (West)    
Max Wind Speed 30 mph    
Max Gust Speed 36 mph    
Visibility 10 miles    
Events      
T = Trace of Precipitation, MM = Missing Value Source: NWS Daily Summary

Daily Weather History Graph

Daily Weather History Graph

Search for Another Location

Airport:

Trip Planner

Search our weather history database for the weather conditions in past years. The results will help you decide how hot, cold, wet, or windy it might be!

Date:

Astronomy

Mar. 30, 2012 Rise Set
Actual Time 7:28 AM CDT 8:06 PM CDT
Civil Twilight 7:00 AM CDT 8:33 PM CDT
Nautical Twilight 6:27 AM CDT 9:06 PM CDT
Astronomical Twilight 5:54 AM CDT 9:40 PM CDT
Moon 12:33 PM CDT (3/30) 2:46 AM CDT (3/30)
Length of Visible Light 13h 33m
Length of Day
12h 37m
Waxing Crescent, 49% of the Moon is Illuminated
Mar 30
Waxing Crescent
Mar 30
First Quarter
Apr 6
Full
Apr 13
Last Quarter
Apr 21
New

Hourly Weather History & Observations

Time (CDT) Temp. Windchill Dew Point Humidity Pressure Visibility Wind Dir Wind Speed Gust Speed Precip Events Conditions
12:53 AM 41.0 °F - 35.1 °F 79% 29.79 in 10.0 mi Calm Calm - N/A   Clear
1:53 AM 39.9 °F - 35.1 °F 83% 29.81 in 10.0 mi Calm Calm - N/A   Clear
2:53 AM 34.0 °F 31.0 °F 30.9 °F 89% 29.82 in 10.0 mi NW 3.5 mph - N/A   Clear
3:53 AM 39.0 °F 36.8 °F 36.0 °F 89% 29.83 in 10.0 mi WNW 3.5 mph - N/A   Clear
4:53 AM 39.9 °F - 35.1 °F 83% 29.86 in 10.0 mi Calm Calm - N/A   Clear
5:53 AM 41.0 °F 39.0 °F 37.0 °F 86% 29.85 in 10.0 mi West 3.5 mph - N/A   Mostly Cloudy
6:53 AM 39.2 °F 37.0 °F 37.4 °F 93% 29.87 in 10.0 mi NE 3.5 mph - N/A   Partly Cloudy
7:53 AM 41.0 °F 36.4 °F 36.0 °F 82% 29.85 in 10.0 mi ESE 6.9 mph - N/A   Clear
8:53 AM 50.0 °F - 39.9 °F 68% 29.86 in 10.0 mi Calm Calm - N/A   Clear
9:53 AM 60.1 °F - 39.9 °F 47% 29.83 in 10.0 mi South 5.8 mph - N/A   Clear
10:53 AM 68.0 °F - 37.9 °F 33% 29.81 in 10.0 mi WSW 11.5 mph - N/A   Clear
11:53 AM 73.0 °F - 37.0 °F 27% 29.78 in 10.0 mi SW 17.3 mph 23.0 mph N/A   Clear
12:53 PM 75.9 °F - 34.0 °F 22% 29.75 in 10.0 mi West 21.9 mph 28.8 mph N/A   Clear
1:53 PM 77.0 °F - 36.0 °F 23% 29.73 in 10.0 mi West 17.3 mph 27.6 mph N/A   Clear
2:53 PM 78.1 °F - 35.1 °F 21% 29.72 in 10.0 mi West 23.0 mph 29.9 mph N/A   Clear
3:53 PM 79.0 °F - 34.0 °F 20% 29.70 in 10.0 mi WNW 20.7 mph 28.8 mph N/A   Clear
4:53 PM 79.0 °F - 33.1 °F 19% 29.67 in 10.0 mi West 13.8 mph 21.9 mph N/A   Clear
5:53 PM 78.1 °F - 36.0 °F 22% 29.68 in 10.0 mi WNW 18.4 mph 24.2 mph N/A   Clear
6:53 PM 69.1 °F - 41.0 °F 36% 29.69 in 10.0 mi NW 9.2 mph - N/A   Clear
7:53 PM 64.0 °F - 44.1 °F 48% 29.72 in 10.0 mi Calm Calm - N/A   Clear
8:53 PM 60.1 °F - 39.9 °F 47% 29.73 in 10.0 mi SSE 3.5 mph - N/A   Clear
9:53 PM 53.1 °F - 39.0 °F 59% 29.75 in 10.0 mi ENE 4.6 mph - N/A   Clear
10:53 PM 48.9 °F - 36.0 °F 61% 29.73 in 10.0 mi Calm Calm - N/A   Clear
11:53 PM 46.0 °F 43.1 °F 36.0 °F 68% 29.75 in 10.0 mi ESE 5.8 mph - N/A   Clear